Weather History for 76649 - January, 2014

Change the Weather History Date:

Monday, January 20, 2014

  Actual Average Record
Temperature  
Mean Temperature 64 °F -  
Max Temperature 75 °F 81 °F - ()
Min Temperature 53 °F 69 °F - ()
Degree Days  
Heating Degree Days 1    
Growing Degree Days 14 (Base 50)    
Moisture  
Dew Point 58 °F    
Average Humidity 83    
Maximum Humidity 100    
Minimum Humidity 50    
Precipitation  
Precipitation 0.00 in - - ()
Sea Level Pressure  
Sea Level Pressure 30.12 in    
Wind  
Wind Speed 3 mph ()    
Max Wind Speed 12 mph    
Max Gust Speed -    
Visibility 7.5 miles    
Events      
T = Trace of Precipitation, MM = Missing Value Source: Averaged Metar Reports

Daily Weather History Graph

Daily Weather History Graph

Search for Another Location

Airport or City:

Trip Planner

Search our weather history database for the weather conditions in past years. The results will help you decide how hot, cold, wet, or windy it might be!

Date:

Astronomy

Jan. 20, 2014 Rise Set
Actual Time 6:26 AM CST 5:31 PM CST
Civil Twilight 6:02 AM CST 5:54 PM CST
Nautical Twilight 5:35 AM CST 6:21 PM CST
Astronomical Twilight 5:09 AM CST 6:48 PM CST
Moon 9:25 PM CST (1/20) 9:02 AM CST (1/20)
Length of Visible Light 11h 52m
Length of Day
11h 05m
Waning Gibbous, 82% of the Moon is Illuminated
Jan 20
Waning Gibbous
Jan 23
Last Quarter
Jan 30
New
Feb 6
First Quarter
Feb 14
Full

Hourly Weather History & Observations

Time (CST) Temp. Dew Point Humidity Pressure Visibility Wind Dir Wind Speed Gust Speed Precip Events Conditions
1:00 AM - - N/A% - - North - - N/A   Unknown
2:00 AM - - N/A% - - North - - N/A   Unknown
2:21 AM 55.4 °F 55.4 °F 100% 30.14 in 7.0 mi Calm Calm - N/A   Scattered Clouds
2:44 AM 55.4 °F 55.4 °F 100% 30.16 in 7.0 mi Calm Calm - N/A   Scattered Clouds
3:41 AM 53.6 °F 53.6 °F 100% 30.13 in 7.0 mi Calm Calm - N/A   Scattered Clouds
4:49 AM 53.6 °F 53.6 °F 100% 30.13 in 7.0 mi Calm Calm - N/A   Scattered Clouds
5:43 AM 55.4 °F 55.4 °F 100% 30.10 in 7.0 mi Calm Calm - N/A   Partly Cloudy
6:41 AM 57.2 °F 57.2 °F 100% 30.14 in 7.0 mi ESE 3.5 mph - N/A   Scattered Clouds
7:44 AM 66.2 °F 62.6 °F 88% 30.16 in 7.0 mi ENE 3.5 mph - N/A   Scattered Clouds
8:47 AM 68.0 °F 62.6 °F 83% 30.21 in 7.0 mi NNE 4.6 mph - N/A   Scattered Clouds
9:45 AM 69.8 °F 64.4 °F 83% 30.20 in 8.0 mi East 5.8 mph - N/A   Scattered Clouds
10:42 AM 73.4 °F 59.0 °F 61% 30.17 in 8.0 mi ENE 11.5 mph - N/A   Scattered Clouds
11:47 AM 73.4 °F 59.0 °F 61% 30.12 in 8.0 mi East 9.2 mph - N/A   Scattered Clouds
12:49 PM 73.4 °F 59.0 °F 61% 30.10 in 8.0 mi East 9.2 mph - N/A   Scattered Clouds
1:44 PM 75.2 °F 55.4 °F 50% 30.08 in 8.0 mi East 9.2 mph - N/A   Scattered Clouds
2:40 PM 73.4 °F 57.2 °F 57% 30.10 in 8.0 mi ESE 5.8 mph - N/A   Partly Cloudy
3:40 PM 73.4 °F 57.2 °F 57% 30.07 in 8.0 mi ESE 9.2 mph - N/A   Partly Cloudy
4:41 PM 71.6 °F 57.2 °F 60% 30.08 in 8.0 mi East 5.8 mph - N/A   Partly Cloudy
5:40 PM 66.2 °F 59.0 °F 78% 30.07 in 8.0 mi Calm Calm - N/A   Clear
6:40 PM 62.6 °F 59.0 °F 88% 30.09 in 8.0 mi ESE 3.5 mph - N/A   Clear
7:40 PM 60.8 °F 57.2 °F 88% 30.11 in 8.0 mi Calm Calm - N/A   Clear
8:42 PM 59.0 °F 57.2 °F 94% 30.14 in 7.0 mi Calm Calm - N/A   Clear
9:43 PM 57.2 °F 57.2 °F 100% 30.12 in 7.0 mi Calm Calm - N/A   Clear
10:40 PM 55.4 °F 55.4 °F 100% 30.10 in 7.0 mi Calm Calm - N/A   Clear
11:40 PM 55.4 °F 55.4 °F 100% 30.08 in 7.0 mi Calm Calm - N/A   Clear